Regional Weather Roundup
Issued by NWS

Home | Current Version | Previous Version | Graphics & Text | Print | Product List | Glossary On
Versions: 1 2 3 4 5 6 7 8 9 10 11 12 13 14 15 16 17 18 19 20 21 22 23 24 25 26 27 28 29 30 31 32 33 34 35 36 37 38 39 40 41 42 43 44 45 46 47 48 49 50
000
ASUS43 KFSD 231810
RWRSD

WEATHER ROUNDUP FOR SOUTH DAKOTA
NATIONAL WEATHER SERVICE SIOUX FALLS SD
100 PM CDT TUE AUG 23 2016

NOTE: "FAIR" INDICATES FEW OR NO CLOUDS BELOW 12,000 FEET WITH NO
SIGNIFICANT WEATHER AND/OR OBSTRUCTIONS TO VISIBILITY.


SDZ001>005-009-010-012>017-231900-
NORTHWEST AND NORTH CENTRAL SOUTH DAKOTA

CITY           SKY/WX    TMP DP  RH WIND       PRES   REMARKS
BUFFALO          N/A     75  34  22 NW28G38   29.84S
FAITH            N/A     81  38  21 NW31G41   29.82R
MOBRIDGE       MOSUNNY   81  63  54 N21       29.69R
$$

SDZ012>016-024>037-041>051-057-063-072>074-231900-
SOUTHWEST AND SOUTH CENTRAL SOUTH DAKOTA

CITY           SKY/WX    TMP DP  RH WIND       PRES   REMARKS
RAPID CTY ARPT SUNNY     79  33  19 N30G40    29.92R
PIERRE         SUNNY     81  52  36 NW16      29.72R
CUSTER           N/A     73  28  18 VRB5      30.03R
ELLSWORTH AFB  SUNNY     77  33  20 N28G41    29.91R
PHILIP         SUNNY     82  46  28 NW28G39   29.78R
PINE RIDGE     SUNNY     79  36  21 N16G29    29.91R
WINNER         FAIR      88  62  41 SW13      29.75S
$$

SDZ004>011-016>023-039-040-231900-
NORTHEAST SOUTH DAKOTA

CITY           SKY/WX    TMP DP  RH WIND       PRES   REMARKS
ABERDEEN       SUNNY     86  64  47 S22G32    29.68S
WATERTOWN      SUNNY     80  67  64 S16G26    29.79F
BROOKINGS      CLOUDY    76  67  73 S16G23    29.83R
SISSETON         N/A     86  66  51 S17G29    29.73R
$$

SDZ017-020-022-023-036>040-048>070-231900-
SOUTHEAST SOUTH DAKOTA

CITY           SKY/WX    TMP DP  RH WIND       PRES   REMARKS
SIOUX FALLS    CLOUDY    72  69  90 S16       29.85S
HURON          SUNNY     82  64  54 S24G38    29.73F
CHAMBERLAIN    SUNNY     87  69  54 S17       29.73F
MITCHELL       SUNNY     82  65  56 S17G25    29.78S
YANKTON        CLOUDY    70  64  83 SE12      29.82S
$$

ABBREVIATIONS USED IN REMARKS
   TC - TEMPERATURE IN CELSIUS
  WCI - WIND CHILL INDEX
   HX - HEAT INDEX
  VSB - VISIBILITY





USA.gov is the U.S. government's official web portal to all federal, state and local government web resources and services.